When you browse on this site, cookies collect data to enhance your experience and personalize the content and advertising you see.
Visit our Privacy Policy to learn more. By continuing to use the site, you agree to this use of cookies and data.
  • In Latvia
  • List of Countries
  • For 7 days
  • Water Temperature
  • Weather Map
  • Weather Widgets
  • user-avatar
    Login

    Hourly Weather Kota

    Today, 28 February, Friday

    Time Temperature Precipitation Wind Pressure Humidity
    00:00 +24°C° 0 mm 2 mps 736 mmHg 26%
    01:00 +23°C° 0 mm 2 mps 735 mmHg 27%
    02:00 +23°C° 0 mm 2 mps 735 mmHg 28%
    03:00 +21°C° 0 mm 2 mps 735 mmHg 29%
    04:00 +22°C° 0 mm 1 mps 735 mmHg 30%
    05:00 +22°C° 0 mm 1 mps 734 mmHg 37%
    06:00 +23°C° 0 mm 1 mps 735 mmHg 35%
    07:00 +24°C° 0 mm 1 mps 736 mmHg 33%
    08:00 +26°C° 0 mm 1 mps 736 mmHg 32%
    09:00 +28°C° 0 mm 2 mps 736 mmHg 27%
    10:00 +31°C° 0 mm 2 mps 736 mmHg 23%
    11:00 +34°C° 0 mm 2 mps 737 mmHg 18%
    12:00 +35°C° 0 mm 2 mps 736 mmHg 17%
    13:00 +35°C° 0 mm 2 mps 735 mmHg 17%
    14:00 +36°C° 0 mm 2 mps 735 mmHg 16%
    15:00 +35°C° 0 mm 2 mps 734 mmHg 17%
    16:00 +35°C° 0 mm 2 mps 734 mmHg 18%
    17:00 +32°C° 0 mm 2 mps 734 mmHg 20%
    18:00 +31°C° 0 mm 2 mps 734 mmHg 22%
    19:00 +29°C° 0 mm 2 mps 735 mmHg 24%
    20:00 +28°C° 0 mm 2 mps 735 mmHg 26%
    21:00 +28°C° 0 mm 2 mps 735 mmHg 26%
    22:00 +27°C° 0 mm 2 mps 735 mmHg 26%
    23:00 +27°C° 0 mm 2 mps 735 mmHg 27%

    Tomorrow, 29 February, Saturday

    Time Temperature Precipitation Wind Pressure Humidity
    00:00 +26°C° 0 mm 2 mps 734 mmHg 29%
    01:00 +25°C° 0 mm 1 mps 734 mmHg 31%
    02:00 +24°C° 0 mm 1 mps 733 mmHg 33%
    03:00 +23°C° 0 mm 1 mps 733 mmHg 35%
    04:00 +22°C° 0 mm 1 mps 733 mmHg 37%
    05:00 +21°C° 0 mm 1 mps 733 mmHg 39%
    06:00 +23°C° 0 mm 1 mps 733 mmHg 37%
    07:00 +24°C° 0 mm 1 mps 734 mmHg 35%
    08:00 +25°C° 0 mm 1 mps 735 mmHg 33%
    09:00 +28°C° 0 mm 1 mps 735 mmHg 28%
    10:00 +30°C° 0 mm 2 mps 735 mmHg 24%
    11:00 +34°C° 0 mm 2 mps 735 mmHg 19%
    12:00 +35°C° 0 mm 3 mps 734 mmHg 17%
    13:00 +36°C° 0 mm 4 mps 734 mmHg 15%
    14:00 +38°C° 0 mm 4 mps 733 mmHg 13%
    15:00 +37°C° 0 mm 4 mps 732 mmHg 14%
    16:00 +36°C° 0 mm 4 mps 732 mmHg 15%
    17:00 +35°C° 0 mm 3 mps 732 mmHg 16%
    18:00 +33°C° 0 mm 3 mps 732 mmHg 18%
    19:00 +30°C° 0 mm 3 mps 733 mmHg 20%
    20:00 +28°C° 0 mm 3 mps 733 mmHg 22%
    21:00 +27°C° 0 mm 3 mps 734 mmHg 25%
    22:00 +25°C° 0 mm 2 mps 734 mmHg 28%
    23:00 +24°C° 0 mm 2 mps 734 mmHg 31%

    Day after tomorrow, 1 March, Sunday

    Time Temperature Precipitation Wind Pressure Humidity
    00:00 +23°C° 0 mm 2 mps 734 mmHg 33%
    01:00 +23°C° 0 mm 2 mps 734 mmHg 35%
    02:00 +21°C° 0 mm 2 mps 734 mmHg 37%
    03:00 +20°C° 0 mm 2 mps 734 mmHg 41%
    04:00 +20°C° 0 mm 2 mps 734 mmHg 44%
    05:00 +19°C° 0 mm 2 mps 734 mmHg 48%
    06:00 +20°C° 0 mm 2 mps 734 mmHg 47%
    07:00 +21°C° 0 mm 2 mps 735 mmHg 45%
    08:00 +23°C° 0 mm 2 mps 736 mmHg 43%
    09:00 +26°C° 0 mm 2 mps 736 mmHg 36%
    10:00 +29°C° 0 mm 1 mps 735 mmHg 29%
    11:00 +32°C° 0 mm 1 mps 735 mmHg 23%
    12:00 +34°C° 0 mm 2 mps 735 mmHg 19%
    13:00 +36°C° 0 mm 3 mps 734 mmHg 16%
    14:00 +37°C° 0 mm 3 mps 733 mmHg 13%
    15:00 +37°C° 0 mm 4 mps 733 mmHg 12%
    16:00 +36°C° 0 mm 4 mps 733 mmHg 12%
    17:00 +36°C° 0 mm 4 mps 732 mmHg 11%
    18:00 +33°C° 0 mm 3 mps 733 mmHg 14%
    19:00 +29°C° 0 mm 3 mps 733 mmHg 16%
    20:00 +26°C° 0 mm 2 mps 734 mmHg 19%
    21:00 +26°C° 0 mm 2 mps 734 mmHg 20%
    22:00 +25°C° 0 mm 3 mps 734 mmHg 22%
    23:00 +23°C° 0 mm 4 mps 734 mmHg 23%

    2 March, Monday

    Time Temperature Precipitation Wind Pressure Humidity
    00:00 +22°C° 0 mm 4 mps 734 mmHg 29%
    01:00 +21°C° 0 mm 3 mps 734 mmHg 35%
    02:00 +21°C° 0 mm 3 mps 734 mmHg 41%
    03:00 +20°C° 0 mm 3 mps 734 mmHg 49%
    04:00 +19°C° 0 mm 3 mps 734 mmHg 57%
    05:00 +18°C° 0 mm 3 mps 734 mmHg 65%
    06:00 +19°C° 0 mm 2 mps 734 mmHg 63%
    07:00 +20°C° 0 mm 2 mps 735 mmHg 61%
    08:00 +23°C° 0 mm 2 mps 735 mmHg 59%
    09:00 +25°C° 0 mm 2 mps 736 mmHg 48%
    10:00 +28°C° 0 mm 1 mps 736 mmHg 37%
    11:00 +31°C° 0 mm 1 mps 736 mmHg 26%
    12:00 +32°C° 0 mm 2 mps 735 mmHg 22%
    13:00 +34°C° 0 mm 3 mps 734 mmHg 18%
    14:00 +36°C° 0 mm 4 mps 733 mmHg 14%
    15:00 +35°C° 0 mm 4 mps 733 mmHg 14%
    16:00 +35°C° 0 mm 4 mps 733 mmHg 14%
    17:00 +34°C° 0 mm 4 mps 732 mmHg 14%
    18:00 +32°C° 0 mm 4 mps 733 mmHg 16%
    19:00 +28°C° 0 mm 3 mps 733 mmHg 18%
    20:00 +26°C° 0 mm 3 mps 734 mmHg 19%
    21:00 +25°C° 0 mm 2 mps 734 mmHg 21%
    22:00 +24°C° 0 mm 2 mps 734 mmHg 22%
    23:00 +23°C° 0 mm 2 mps 734 mmHg 23%

    3 March, Tuesday

    Time Temperature Precipitation Wind Pressure Humidity
    00:00 +23°C° 0 mm 2 mps 734 mmHg 24%
    01:00 +21°C° 0 mm 2 mps 734 mmHg 26%
    02:00 +21°C° 0 mm 2 mps 734 mmHg 27%
    03:00 +20°C° 0 mm 2 mps 734 mmHg 30%
    04:00 +20°C° 0 mm 2 mps 734 mmHg 32%
    05:00 +19°C° 0 mm 2 mps 734 mmHg 35%
    06:00 +20°C° 0 mm 2 mps 734 mmHg 35%
    07:00 +22°C° 0 mm 1 mps 735 mmHg 34%
    08:00 +24°C° 0 mm 1 mps 736 mmHg 34%
    09:00 +26°C° 0 mm 1 mps 736 mmHg 29%
    10:00 +29°C° 0 mm 1 mps 736 mmHg 24%
    11:00 +32°C° 0 mm 1 mps 736 mmHg 19%
    12:00 +34°C° 0 mm 2 mps 735 mmHg 17%
    13:00 +34°C° 0 mm 2 mps 734 mmHg 15%
    14:00 +35°C° 0 mm 3 mps 733 mmHg 12%
    15:00 +35°C° 0 mm 3 mps 733 mmHg 13%
    16:00 +35°C° 0 mm 3 mps 732 mmHg 13%
    17:00 +34°C° 0 mm 4 mps 732 mmHg 13%
    18:00 +31°C° 0 mm 3 mps 732 mmHg 16%
    19:00 +28°C° 0 mm 3 mps 733 mmHg 20%
    20:00 +26°C° 0 mm 2 mps 733 mmHg 23%
    21:00 +25°C° 0 mm 2 mps 733 mmHg 25%
    22:00 +24°C° 0 mm 1 mps 733 mmHg 26%
    23:00 +23°C° 0 mm 1 mps 733 mmHg 28%

    4 March, Wednesday

    Time Temperature Precipitation Wind Pressure Humidity
    00:00 +23°C° 0 mm 1 mps 733 mmHg 29%
    01:00 +22°C° 0 mm 1 mps 733 mmHg 30%
    02:00 +22°C° 0 mm 1 mps 732 mmHg 30%
    03:00 +21°C° 0 mm 1 mps 732 mmHg 31%
    04:00 +21°C° 0 mm 1 mps 732 mmHg 31%
    05:00 +20°C° 0 mm 2 mps 732 mmHg 31%
    06:00 +22°C° 0 mm 1 mps 733 mmHg 30%
    07:00 +23°C° 0 mm 1 mps 734 mmHg 28%
    08:00 +24°C° 0 mm 1 mps 734 mmHg 27%
    09:00 +27°C° 0 mm 1 mps 734 mmHg 23%
    10:00 +30°C° 0 mm 2 mps 734 mmHg 20%
    11:00 +32°C° 0 mm 2 mps 734 mmHg 17%
    12:00 +34°C° 0 mm 2 mps 734 mmHg 15%
    13:00 +34°C° 0 mm 1 mps 733 mmHg 13%
    14:00 +34°C° 0 mm 1 mps 732 mmHg 12%
    15:00 +34°C° 0 mm 1 mps 731 mmHg 12%
    16:00 +34°C° 0 mm 1 mps 731 mmHg 12%
    17:00 +33°C° 0 mm 1 mps 731 mmHg 12%
    18:00 +31°C° 0 mm 1 mps 731 mmHg 15%
    19:00 +28°C° 0 mm 1 mps 731 mmHg 17%
    20:00 +26°C° 0 mm 1 mps 732 mmHg 19%
    21:00 +25°C° 0 mm 1 mps 732 mmHg 19%
    22:00 +25°C° 0 mm 1 mps 732 mmHg 19%
    23:00 +25°C° 0 mm 1 mps 732 mmHg 20%
    Show more